• In Hungary
  • List of Countries
  • For 7 days
  • Water Temperature
  • Satellite Maps
  • Weather Map
  • News
  • Weather Widgets
  • user-avatar
    Login

    Hourly Weather Orlinka

    Today, 25 September, Tuesday

    Time Temperature Precipitation Wind Pressure Humidity
    00:00 +6°C° 0.7 mm 5 mps 729 mmHg 92%
    01:00 +5°C° 0.7 mm 6 mps 729 mmHg 91%
    02:00 +5°C° 0.7 mm 6 mps 729 mmHg 90%
    03:00 +4°C° 0.2 mm 6 mps 730 mmHg 90%
    04:00 +4°C° 0.2 mm 6 mps 731 mmHg 90%
    05:00 +4°C° 0.2 mm 6 mps 731 mmHg 89%
    06:00 +4°C° 0 mm 6 mps 732 mmHg 88%
    07:00 +4°C° 0 mm 6 mps 733 mmHg 88%
    08:00 +4°C° 0 mm 6 mps 733 mmHg 87%
    09:00 +4°C° 0 mm 6 mps 734 mmHg 84%
    10:00 +5°C° 0 mm 6 mps 735 mmHg 81%
    11:00 +5°C° 0 mm 6 mps 736 mmHg 78%
    12:00 +7°C° 0.1 mm 6 mps 736 mmHg 75%
    13:00 +7°C° 0.1 mm 6 mps 737 mmHg 71%
    14:00 +7°C° 0.1 mm 6 mps 738 mmHg 68%
    15:00 +7°C° 0 mm 5 mps 738 mmHg 69%
    16:00 +6°C° 0 mm 5 mps 739 mmHg 70%
    17:00 +6°C° 0 mm 5 mps 740 mmHg 71%
    18:00 +5°C° 0 mm 5 mps 740 mmHg 73%
    19:00 +5°C° 0 mm 4 mps 741 mmHg 75%
    20:00 +4°C° 0 mm 4 mps 742 mmHg 77%
    21:00 +4°C° 0 mm 4 mps 743 mmHg 76%
    22:00 +3°C° 0 mm 4 mps 743 mmHg 74%
    23:00 +3°C° 0 mm 4 mps 744 mmHg 72%

    Tomorrow, 26 September, Wednesday

    Time Temperature Precipitation Wind Pressure Humidity
    00:00 +1°C° 0 mm 4 mps 744 mmHg 73%
    01:00 +2°C° 0 mm 3 mps 745 mmHg 74%
    02:00 +1°C° 0 mm 3 mps 746 mmHg 74%
    03:00 +1°C° 0 mm 3 mps 746 mmHg 77%
    04:00 +1°C° 0 mm 3 mps 746 mmHg 79%
    05:00 0°C° 0 mm 3 mps 747 mmHg 81%
    06:00 +1°C° 0 mm 3 mps 747 mmHg 81%
    07:00 +3°C° 0 mm 3 mps 747 mmHg 81%
    08:00 +4°C° 0 mm 3 mps 748 mmHg 80%
    09:00 +5°C° 0 mm 4 mps 747 mmHg 72%
    10:00 +7°C° 0 mm 4 mps 747 mmHg 65%
    11:00 +10°C° 0 mm 4 mps 747 mmHg 57%
    12:00 +9°C° 0 mm 5 mps 746 mmHg 54%
    13:00 +10°C° 0 mm 5 mps 746 mmHg 52%
    14:00 +10°C° 0 mm 5 mps 745 mmHg 50%
    15:00 +9°C° 0 mm 5 mps 744 mmHg 54%
    16:00 +9°C° 0 mm 5 mps 743 mmHg 59%
    17:00 +8°C° 0 mm 5 mps 743 mmHg 64%
    18:00 +7°C° 0.7 mm 6 mps 741 mmHg 71%
    19:00 +6°C° 0.7 mm 7 mps 740 mmHg 79%
    20:00 +5°C° 0.7 mm 7 mps 739 mmHg 86%
    21:00 +5°C° 1.7 mm 8 mps 738 mmHg 87%
    22:00 +5°C° 1.7 mm 8 mps 736 mmHg 88%
    23:00 +5°C° 1.7 mm 8 mps 735 mmHg 89%

    Day after tomorrow, 27 September, Thursday

    Time Temperature Precipitation Wind Pressure Humidity
    00:00 +5°C° 1.2 mm 8 mps 734 mmHg 90%
    01:00 +6°C° 1.2 mm 7 mps 733 mmHg 91%
    02:00 +6°C° 1.2 mm 7 mps 733 mmHg 91%
    03:00 +7°C° 0.9 mm 6 mps 732 mmHg 91%
    04:00 +7°C° 0.9 mm 6 mps 732 mmHg 90%
    05:00 +7°C° 0.9 mm 5 mps 732 mmHg 90%
    06:00 +7°C° 0.1 mm 5 mps 733 mmHg 87%
    07:00 +7°C° 0.1 mm 5 mps 733 mmHg 85%
    08:00 +7°C° 0.1 mm 5 mps 733 mmHg 82%
    09:00 +7°C° 0.1 mm 6 mps 734 mmHg 77%
    10:00 +8°C° 0.1 mm 6 mps 734 mmHg 72%
    11:00 +9°C° 0.1 mm 6 mps 734 mmHg 66%
    12:00 +9°C° 0.1 mm 7 mps 734 mmHg 63%
    13:00 +9°C° 0.1 mm 7 mps 735 mmHg 61%
    14:00 +10°C° 0.1 mm 7 mps 735 mmHg 58%
    15:00 +9°C° 0.1 mm 6 mps 735 mmHg 61%
    16:00 +8°C° 0.1 mm 5 mps 736 mmHg 64%
    17:00 +7°C° 0.1 mm 4 mps 736 mmHg 67%
    18:00 +7°C° 0 mm 4 mps 736 mmHg 70%
    19:00 +6°C° 0 mm 4 mps 736 mmHg 72%
    20:00 +5°C° 0 mm 4 mps 737 mmHg 75%
    21:00 +5°C° 0 mm 4 mps 737 mmHg 76%
    22:00 +5°C° 0 mm 3 mps 737 mmHg 77%
    23:00 +4°C° 0 mm 3 mps 737 mmHg 78%

    28 September, Friday

    Time Temperature Precipitation Wind Pressure Humidity
    00:00 +4°C° 0 mm 3 mps 737 mmHg 80%
    01:00 +4°C° 0 mm 3 mps 736 mmHg 82%
    02:00 +3°C° 0 mm 3 mps 736 mmHg 83%
    03:00 +3°C° 0.9 mm 3 mps 735 mmHg 86%
    04:00 +3°C° 0.9 mm 3 mps 734 mmHg 89%
    05:00 +3°C° 0.9 mm 3 mps 732 mmHg 92%
    06:00 +4°C° 4.3 mm 3 mps 731 mmHg 92%
    07:00 +5°C° 4.3 mm 4 mps 730 mmHg 93%
    08:00 +6°C° 4.3 mm 4 mps 729 mmHg 93%
    09:00 +6°C° 1.1 mm 4 mps 729 mmHg 92%
    10:00 +5°C° 1.1 mm 4 mps 730 mmHg 91%
    11:00 +5°C° 1.1 mm 4 mps 730 mmHg 90%
    12:00 +5°C° 0.2 mm 4 mps 732 mmHg 88%
    13:00 +5°C° 0.2 mm 4 mps 733 mmHg 85%
    14:00 +5°C° 0.2 mm 4 mps 735 mmHg 83%
    15:00 +5°C° 0 mm 4 mps 736 mmHg 82%
    16:00 +4°C° 0 mm 3 mps 737 mmHg 82%
    17:00 +4°C° 0 mm 3 mps 738 mmHg 82%
    18:00 +3°C° 0 mm 3 mps 738 mmHg 83%
    19:00 +3°C° 0 mm 2 mps 739 mmHg 85%
    20:00 +2°C° 0 mm 2 mps 740 mmHg 87%
    21:00 +2°C° 0 mm 2 mps 740 mmHg 88%
    22:00 +2°C° 0 mm 2 mps 740 mmHg 88%
    23:00 +1°C° 0 mm 2 mps 740 mmHg 89%

    29 September, Saturday

    Time Temperature Precipitation Wind Pressure Humidity
    00:00 +2°C° 0 mm 2 mps 741 mmHg 89%
    01:00 +1°C° 0 mm 3 mps 741 mmHg 89%
    02:00 +2°C° 0 mm 3 mps 741 mmHg 88%
    03:00 +2°C° 0.1 mm 3 mps 741 mmHg 90%
    04:00 +3°C° 0.1 mm 3 mps 741 mmHg 92%
    05:00 +3°C° 0.1 mm 3 mps 742 mmHg 94%
    06:00 +3°C° 0.1 mm 3 mps 742 mmHg 92%
    07:00 +3°C° 0.1 mm 3 mps 742 mmHg 90%
    08:00 +3°C° 0.1 mm 3 mps 743 mmHg 87%
    09:00 +4°C° 0 mm 3 mps 743 mmHg 79%
    10:00 +6°C° 0 mm 2 mps 744 mmHg 71%
    11:00 +6°C° 0 mm 2 mps 745 mmHg 62%
    12:00 +7°C° 0 mm 2 mps 745 mmHg 58%
    13:00 +7°C° 0 mm 2 mps 745 mmHg 54%
    14:00 +8°C° 0 mm 2 mps 745 mmHg 49%
    15:00 +7°C° 0 mm 2 mps 745 mmHg 56%
    16:00 +6°C° 0 mm 2 mps 746 mmHg 62%
    17:00 +6°C° 0 mm 1 mps 746 mmHg 69%
    18:00 +5°C° 0 mm 1 mps 746 mmHg 72%
    19:00 +4°C° 0 mm 1 mps 747 mmHg 76%
    20:00 +3°C° 0 mm 1 mps 747 mmHg 80%
    21:00 +3°C° 0 mm 1 mps 747 mmHg 82%
    22:00 +3°C° 0 mm 1 mps 747 mmHg 83%
    23:00 +1°C° 0 mm 2 mps 748 mmHg 85%

    30 September, Sunday

    Time Temperature Precipitation Wind Pressure Humidity
    00:00 +1°C° 0 mm 2 mps 748 mmHg 85%
    01:00 +1°C° 0 mm 2 mps 748 mmHg 85%
    02:00 +1°C° 0 mm 2 mps 748 mmHg 85%
    03:00 +1°C° 0 mm 2 mps 748 mmHg 84%
    04:00 +1°C° 0 mm 2 mps 747 mmHg 83%
    05:00 +1°C° 0 mm 2 mps 747 mmHg 83%
    06:00 +1°C° 0 mm 3 mps 747 mmHg 78%
    07:00 +2°C° 0 mm 3 mps 747 mmHg 73%
    08:00 +3°C° 0 mm 3 mps 747 mmHg 69%
    09:00 +4°C° 0 mm 4 mps 747 mmHg 65%
    10:00 +5°C° 0 mm 4 mps 747 mmHg 61%
    11:00 +6°C° 0 mm 4 mps 747 mmHg 57%
    12:00 +7°C° 0 mm 4 mps 746 mmHg 55%
    13:00 +7°C° 0 mm 4 mps 746 mmHg 53%
    14:00 +8°C° 0 mm 4 mps 745 mmHg 51%
    15:00 +7°C° 0 mm 4 mps 745 mmHg 55%
    16:00 +7°C° 0 mm 3 mps 744 mmHg 59%
    17:00 +5°C° 0 mm 3 mps 744 mmHg 62%
    18:00 +4°C° 0 mm 3 mps 744 mmHg 66%
    19:00 +4°C° 0 mm 3 mps 743 mmHg 69%
    20:00 +3°C° 0 mm 4 mps 743 mmHg 73%
    21:00 +3°C° 0 mm 4 mps 743 mmHg 76%
    22:00 +3°C° 0 mm 4 mps 743 mmHg 79%
    23:00 +3°C° 0 mm 4 mps 742 mmHg 81%
    Show more